"America/Chicago Time","Lifetime Energy (kWh)","Power (W)","AC Volts RMS (V) ","AC Amps RMS (mA)","Grid Frequency (Hz)","Inverter Temperature (C)"
"09/02/12 10:31:10","429689.609","144.9","216.92","669","60.0","29"
"09/02/12 10:36:10","429689.6204","147.5","217.18","681","60.03","29"
"09/02/12 10:41:10","429689.6318","147.8","216.42","689","60.03","30"
"09/02/12 10:46:10","429689.6435","150.8","216.3","699","60.03","30"
"09/02/12 10:51:11","429689.6553","152.9","216.82","708","60.03","30"
"09/02/12 10:56:10","429689.6673","155.0","216.16","717","60.03","30"
"09/02/12 11:01:10","429689.6794","156.3","215.92","720","60.03","31"
"09/02/12 11:06:10","429689.6917","158.1","216.25","735","60.03","31"
"09/02/12 11:11:10","429689.704","159.8","216.47","740","60.0","31"
"09/02/12 11:16:11","429689.7166","159.1","217.15","731","60.0","32"
"09/02/12 11:21:11","429689.7288","154.2","216.75","715","60.03","31"
"09/02/12 11:26:09","429689.7409","155.0","216.98","712","60.0","31"
"09/02/12 11:31:10","429689.7533","163.5","216.03","752","60.0","32"
"09/02/12 11:36:10","429689.7661","160.7","217.05","739","60.0","32"
"09/02/12 11:41:11","429689.7788","165.5","216.99","758","60.03","32"
"09/02/12 11:46:11","429689.7914","159.3","216.95","733","60.03","32"
"09/02/12 11:51:11","429689.8035","156.3","216.5","720","60.03","31"
"09/02/12 11:56:09","429689.8149","144.7","216.05","675","60.03","31"
"09/02/12 12:01:09","429689.8267","146.3","216.18","678","60.07","31"
"09/02/12 12:06:11","429689.8374","132.5","215.97","618","60.03","31"
"09/02/12 12:11:10","429689.8479","140.7","216.05","653","60.0","31"
"09/02/12 12:16:10","429689.8597","166.5","216.28","767","60.0","32"
"09/02/12 12:21:10","429689.8718","153.9","216.29","715","60.03","32"
"09/02/12 12:26:09","429689.8842","158.9","216.57","733","60.0","32"
"09/02/12 12:31:11","429689.897","160.9","216.73","740","60.03","32"
"09/02/12 12:36:10","429689.9097","157.9","216.7","727","60.03","32"
"09/02/12 12:41:10","429689.9196","92.8","215.19","454","60.0","32"
"09/02/12 12:46:10","429689.9289","161.3","216.16","741","60.03","32"
"09/02/12 12:51:10","429689.9411","154.2","215.58","713","60.0","32"
"09/02/12 12:56:10","429689.9534","162.1","216.0","746","60.03","32"
"09/02/12 13:01:09","429689.966","164.6","216.05","754","60.03","33"
"09/02/12 13:06:10","429689.9788","165.5","215.87","764","60.0","33"
"09/02/12 13:11:09","429689.9914","161.2","216.38","743","60.03","33"
"09/02/12 13:16:11","429690.0044","166.9","216.61","768","60.0","34"
"09/02/12 13:21:11","429690.0172","164.5","216.46","761","60.03","34"
"09/02/12 13:26:10","429690.0299","162.1","216.01","748","60.03","35"
"09/02/12 13:31:10","429690.0424","162.2","216.54","749","60.03","34"
"09/02/12 13:36:09","429690.055","159.3","216.46","732","60.03","34"
"09/02/12 13:41:10","429690.0671","149.6","216.1","693","60.03","34"
"09/02/12 13:46:11","429690.0784","136.4","215.44","635","60.0","33"
"09/02/12 13:51:10","429690.0891","133.9","216.38","623","60.03","33"
"09/02/12 13:56:09","429690.101","156.2","216.7","722","60.03","33"
"09/02/12 14:01:10","429690.1133","157.1","216.17","729","60.03","33"
"09/02/12 14:06:09","429690.1254","153.9","215.96","712","60.03","33"
"09/02/12 14:11:11","429690.1372","148.2","215.74","690","60.03","34"
"09/02/12 14:16:10","429690.1482","141.8","215.98","662","60.03","33"
"09/02/12 14:21:11","429690.1595","149.2","216.32","693","60.0","33"
"09/02/12 14:26:11","429690.1711","148.7","216.25","691","60.0","33"
"09/02/12 14:31:10","429690.1825","143.4","216.06","665","60.0","33"
"09/02/12 14:36:11","429690.1935","137.4","215.97","644","60.0","33"
"09/02/12 14:41:11","429690.2039","138.1","215.73","640","60.03","33"
"09/02/12 14:46:10","429690.2149","141.3","214.77","663","60.03","33"
"09/02/12 14:51:11","429690.2252","116.1","214.45","553","60.0","33"
"09/02/12 14:56:11","429690.2349","136.1","215.34","637","60.03","33"
"09/02/12 15:01:11","429690.2454","131.6","215.3","623","60.07","33"
"09/02/12 15:06:09","429690.2555","127.5","215.7","600","60.07","33"
"09/02/12 15:11:11","429690.2655","127.8","215.69","598","60.03","33"
"09/02/12 15:16:09","429690.2753","125.6","215.8","592","60.0","32"
"09/02/12 15:21:10","429690.285","122.4","215.38","579","60.0","32"
"09/02/12 15:26:09","429690.2945","121.4","215.36","573","60.0","32"
"09/02/12 15:31:10","429690.3039","117.4","215.27","558","60.0","32"
"09/02/12 15:36:09","429690.3129","116.1","216.7","548","60.0","32"
"09/02/12 15:41:10","429690.3217","112.2","215.99","534","60.03","32"
"09/02/12 15:46:10","429690.3304","110.5","215.4","527","60.03","32"
"09/02/12 15:51:09","429690.3388","106.8","214.46","514","60.0","32"
"09/02/12 15:56:10","429690.347","100.6","214.86","485","60.03","32"
"09/02/12 16:01:11","429690.3543","85.3","214.94","420","60.0","31"
"09/02/12 16:06:09","429690.3612","87.1","214.34","429","60.03","31"
"09/02/12 16:11:11","429690.3682","92.0","214.93","449","60.03","31"
"09/02/12 16:16:10","429690.3752","83.0","215.28","407","60.03","31"
"09/02/12 16:21:10","429690.3805","56.2","214.46","339","60.03","30"
"09/02/12 16:26:11","429690.3831","13.8","214.12","275","60.0","30"
"09/02/12 16:31:11","429690.3848","30.9","214.07","129","60.0","29"
"09/02/12 16:36:09","429690.3871","26.2","213.49","120","60.0","28"
"09/02/12 16:41:10","429690.3893","34.9","213.94","177","60.03","28"
"09/02/12 16:46:09","429690.3916","32.7","214.65","206","60.03","27"
"09/02/12 16:51:10","429690.3938","26.0","214.44","62","60.03","27"
"09/02/12 16:56:09","429690.3964","49.0","213.91","271","60.0","27"
"09/02/12 17:01:10","429690.4008","76.7","215.04","384","60.0","27"
"09/02/12 17:06:10","429690.4068","74.7","214.58","375","60.03","28"
"09/02/12 17:11:11","429690.4124","68.2","214.88","344","60.0","28"
"09/02/12 17:16:11","429690.4174","61.0","214.5","314","60.03","28"
"09/02/12 17:21:11","429690.4216","40.5","214.43","389","60.03","28"
"09/02/12 17:26:10","429690.4253","49.0","214.46","214","60.03","28"
"09/02/12 17:31:10","429690.4285","37.4","213.0","214","60.03","28"
"09/02/12 17:36:09","429690.4313","39.9","213.2","196","60.03","28"
"09/02/12 17:41:09","429690.4338","35.1","213.4","148","60.03","27"
"09/02/12 17:46:09","429690.4361","21.7","213.39","334","60.0","27"
"09/02/12 17:51:11","429690.438","14.4","213.8","171","60.07","27"
"09/02/12 17:56:10","429690.4396","27.1","213.7","239","60.0","27"
"09/02/12 18:01:10","429690.441","13.4","213.33","253","60.03","27"
"09/02/12 18:06:09","429690.4421","16.2","214.19","38","60.03","26"
"09/02/12 18:11:10","429690.4429","0.0","213.33","88","60.0","26"
"09/02/12 18:16:10","429690.4434","0.0","213.42","0","60.0","26"
"09/02/12 18:21:11","429690.4438","0.0","213.45","0","60.03","26"
"09/02/12 18:46:10","429690.4442","14.6","212.27","1","60.03","25"
"09/02/12 18:51:10","429690.4445","12.2","212.8","4","60.03","25"
"09/03/12 07:53:38","429690.4446","0.0","214.59","63","60.03","20"
"09/03/12 07:58:33","429690.4454","3.3","213.98","242","60.03","21"
"09/03/12 08:03:34","429690.4462","0.0","213.62","0","60.03","21"
"09/03/12 08:08:33","429690.4467","0.0","212.56","11","60.03","22"
"09/03/12 08:13:33","429690.4478","36.3","214.39","110","60.0","22"
"09/03/12 08:18:33","429690.4495","13.4","213.28","3","60.0","22"
"09/03/12 08:23:33","429690.4512","25.5","213.81","320","60.03","22"
"09/03/12 08:28:33","429690.4534","36.8","214.36","189","60.03","22"
"09/03/12 08:33:33","429690.4569","46.8","213.6","145","60.0","23"
"09/03/12 08:38:33","429690.4592","37.8","213.11","154","60.03","23"
"09/03/12 08:43:33","429690.4628","75.7","214.24","379","60.0","24"
"09/03/12 08:48:33","429690.4684","80.9","213.71","400","60.0","24"
"09/03/12 08:53:33","429690.4742","50.6","213.44","235","60.03","25"
"09/03/12 08:58:33","429690.4772","63.9","214.32","326","60.0","25"
"09/03/12 09:03:33","429690.482","67.8","214.19","346","60.03","26"
"09/03/12 09:08:32","429690.4857","48.5","213.58","245","60.0","26"
"09/03/12 09:13:34","429690.4882","33.1","212.43","53","60.03","26"
"09/03/12 09:18:34","429690.4906","52.1","213.34","402","60.0","26"
"09/03/12 09:23:33","429690.4933","13.2","212.97","19","60.0","26"
"09/03/12 09:28:34","429690.4956","37.1","213.42","163","60.0","26"
"09/03/12 09:33:34","429690.4993","39.4","212.93","118","60.0","26"
"09/03/12 09:38:34","429690.5021","50.8","213.26","375","60.0","26"
"09/03/12 09:43:33","429690.5062","54.6","213.78","346","60.0","27"
"09/03/12 09:48:33","429690.5097","36.7","213.33","212","60.03","27"
"09/03/12 09:53:33","429690.5123","29.6","212.43","244","60.0","27"
"09/03/12 09:58:33","429690.5143","31.4","213.52","96","60.03","27"
"09/03/12 10:03:34","429690.5165","26.4","213.32","112","60.0","27"
"09/03/12 10:08:34","429690.5183","29.9","212.82","39","60.0","27"
"09/03/12 10:13:34","429690.52","14.9","212.56","231","60.0","27"
"09/03/12 10:18:34","429690.5217","16.5","213.28","36","60.0","27"
"09/03/12 10:23:33","429690.5236","36.1","213.63","258","60.0","27"
"09/03/12 10:28:34","429690.5262","29.4","213.31","97","60.03","27"
"09/03/12 10:33:34","429690.5286","26.0","213.26","209","60.0","27"
"09/03/12 10:38:34","429690.5312","31.7","214.1","138","60.03","27"
"09/03/12 10:43:33","429690.534","37.3","213.82","94","60.03","28"
"09/03/12 10:48:33","429690.5376","53.9","213.85","329","60.03","28"
"09/03/12 10:53:34","429690.5418","53.1","215.54","354","60.03","29"
"09/03/12 10:58:34","429690.547","71.5","215.35","359","60.03","29"
"09/03/12 11:03:33","429690.5538","113.7","217.25","540","60.03","30"
"09/03/12 11:08:34","429690.5642","114.4","216.38","538","60.03","31"
"09/03/12 11:13:33","429690.5734","95.8","215.12","465","60.03","31"
"09/03/12 11:18:34","429690.5803","42.7","214.6","312","60.03","31"
"09/03/12 11:23:34","429690.5844","42.6","214.86","303","60.0","31"
"09/03/12 11:28:34","429690.5876","26.6","214.22","124","60.03","31"
"09/03/12 11:33:34","429690.5906","43.3","213.6","430","60.03","31"
"09/03/12 11:38:33","429690.595","68.3","215.43","358","60.0","31"
"09/03/12 11:43:33","429690.5986","52.9","214.95","108","60.0","30"
"09/03/12 11:48:35","429690.6033","48.3","214.05","351","60.0","31"
"09/03/12 11:53:34","429690.6083","59.4","214.85","383","60.03","30"
"09/03/12 11:58:33","429690.6129","55.5","214.04","103","60.0","31"
"09/03/12 12:03:34","429690.6165","42.7","214.26","298","60.03","31"
"09/03/12 12:08:33","429690.6208","58.4","214.74","413","60.07","31"
"09/03/12 12:13:33","429690.6244","37.4","213.44","100","60.03","31"
"09/03/12 12:18:33","429690.631","100.8","215.43","486","60.03","31"
"09/03/12 12:23:33","429690.6389","66.5","214.59","340","60.03","32"
"09/03/12 12:28:33","429690.6449","88.6","213.97","436","60.0","32"
"09/03/12 12:33:34","429690.6497","55.3","213.88","416","60.0","31"
"09/03/12 12:38:33","429690.6564","188.6","217.13","857","60.03","32"
"09/03/12 12:43:34","429690.6694","144.6","215.66","674","60.03","33"
"09/03/12 12:48:34","429690.6794","178.2","216.41","816","60.03","33"
"09/03/12 12:53:34","429690.6907","183.1","217.05","830","60.03","34"
"09/03/12 12:58:33","429690.7008","45.4","213.8","258","60.07","35"
"09/03/12 13:03:34","429690.7095","183.2","215.79","839","60.03","35"
"09/03/12 13:08:34","429690.7222","186.0","216.63","854","60.03","36"
"09/03/12 13:13:34","429690.7346","187.2","216.3","856","60.0","37"
"09/03/12 13:18:33","429690.745","167.2","216.17","772","60.03","37"
"09/03/12 13:23:33","429690.7588","179.6","215.63","822","60.03","38"
"09/03/12 13:28:34","429690.7721","170.4","215.46","789","60.03","38"
"09/03/12 13:33:33","429690.7854","162.5","215.16","746","60.0","39"
"09/03/12 13:38:33","429690.7977","149.9","215.05","702","60.03","39"
"09/03/12 13:43:33","429690.8103","164.6","215.84","756","60.0","39"
"09/03/12 13:48:33","429690.8232","171.8","216.29","788","60.03","40"
"09/03/12 13:53:33","429690.8362","162.9","215.52","752","60.03","40"
"09/03/12 13:58:34","429690.8492","166.6","217.21","764","60.0","40"
"09/03/12 14:03:34","429690.862","162.1","216.25","745","60.03","40"
"09/03/12 14:08:33","429690.8745","159.1","216.18","735","60.03","40"
"09/03/12 14:13:35","429690.8869","158.1","216.3","735","60.03","41"
"09/03/12 14:18:34","429690.8991","158.3","215.54","737","60.03","41"
"09/03/12 14:23:34","429690.9108","110.1","215.59","525","60.0","41"
"09/03/12 14:28:34","429690.9184","84.6","215.22","414","60.03","40"
"09/03/12 14:33:33","429690.9254","79.8","214.5","397","60.0","39"
"09/03/12 14:38:34","429690.9337","127.0","214.96","599","60.0","38"
"09/03/12 14:43:34","429690.9403","63.2","213.22","325","60.0","38"
"09/03/12 14:48:33","429690.9457","79.2","213.77","391","60.03","37"
"09/03/12 14:53:33","429690.9509","49.5","213.15","425","60.03","37"
"09/03/12 14:58:33","429690.9545","56.1","213.14","100","60.03","36"
"09/03/12 15:03:33","429690.9584","49.1","212.97","84","60.03","35"
"09/03/12 15:08:34","429690.9629","98.2","214.81","473","60.0","35"
"09/03/12 15:13:34","429690.9701","48.3","213.25","401","60.03","35"
"09/03/12 15:18:33","429690.9751","137.3","214.94","641","60.0","34"
"09/03/12 15:23:33","429690.9854","139.7","215.12","653","60.0","35"
"09/03/12 15:28:34","429690.9958","127.0","214.32","600","60.0","36"
"09/03/12 15:33:34","429691.0044","127.1","214.1","602","60.0","36"
"09/03/12 15:38:34","429691.0137","118.0","213.8","561","60.03","36"
"09/03/12 15:43:34","429691.0231","117.2","214.5","563","60.0","36"
"09/03/12 15:48:33","429691.0319","113.1","214.21","539","60.0","36"
"09/03/12 15:53:34","429691.0406","108.9","213.87","523","60.03","37"
"09/03/12 15:58:33","429691.0489","106.6","213.47","515","60.0","37"
"09/03/12 16:03:34","429691.0572","103.8","213.05","506","60.0","36"
"09/03/12 16:08:33","429691.0651","100.3","212.75","492","60.03","36"
"09/03/12 16:13:33","429691.0728","96.9","212.78","473","60.0","36"
"09/03/12 16:18:33","429691.0802","93.8","212.83","457","60.0","36"
"09/03/12 16:23:33","429691.0873","90.5","212.26","445","60.03","36"
"09/03/12 16:28:33","429691.0941","86.8","212.27","428","60.03","36"
"09/03/12 16:33:33","429691.1008","82.5","212.45","412","60.0","36"
"09/03/12 16:38:34","429691.1071","78.8","212.3","396","60.03","36"
"09/03/12 16:43:33","429691.113","74.8","213.39","375","60.0","36"
"09/03/12 16:48:33","429691.1187","71.3","212.6","363","60.03","35"
"09/03/12 16:53:33","429691.1241","67.5","212.59","343","60.03","35"
"09/03/12 16:58:34","429691.1292","63.8","213.53","326","60.03","35"
"09/03/12 17:03:33","429691.134","53.3","212.5","322","60.0","34"
"09/03/12 17:08:34","429691.1379","56.3","213.9","140","60.0","34"
"09/03/12 17:13:34","429691.1421","53.3","213.29","395","60.03","34"
"09/03/12 17:18:34","429691.1459","47.1","213.32","339","60.03","34"
"09/03/12 17:23:34","429691.1494","50.1","212.9","160","60.0","34"
"09/03/12 17:28:34","429691.1526","34.0","212.94","309","60.03","33"
"09/03/12 17:33:33","429691.1555","32.1","212.98","161","60.0","33"
"09/03/12 17:38:33","429691.1581","28.2","213.12","234","60.0","33"
"09/03/12 17:43:34","429691.1605","23.8","213.39","229","60.03","33"
"09/03/12 17:48:34","429691.1625","22.5","212.47","141","60.03","32"
"09/03/12 17:53:35","429691.1644","12.0","212.25","250","60.03","32"
"09/03/12 17:58:33","429691.1658","17.2","212.9","197","60.03","32"
"09/03/12 18:03:34","429691.1671","13.6","212.87","32","60.0","32"
"09/03/12 18:08:33","429691.1681","11.7","212.17","6","60.03","32"
"09/03/12 18:13:35","429691.1689","14.8","212.01","5","60.03","32"
"09/03/12 18:18:33","429691.1695","15.3","212.3","1","60.03","31"
"09/03/12 18:23:33","429691.17","1.1","212.01","239","60.03","31"
"09/03/12 18:28:33","429691.1703","12.9","211.96","21","60.0","31"
"09/03/12 18:33:33","429691.1705","0.0","212.3","0","60.0","30"
"09/03/12 18:38:33","429691.1705","0.0","212.26","0","60.03","29"
"09/04/12 06:53:34","429691.1708","0.0","213.49","0","60.0","18"
"09/04/12 06:58:34","429691.1712","0.0","214.09","184","60.03","18"
"09/04/12 07:03:33","429691.1719","0.2","214.0","38","60.03","18"
"09/04/12 07:08:34","429691.1727","12.0","213.34","4","60.03","18"
"09/04/12 07:13:35","429691.1738","20.3","214.06","177","60.03","19"
"09/04/12 07:18:34","429691.175","14.6","214.71","225","60.03","19"
"09/04/12 07:23:33","429691.1766","20.2","213.7","79","60.03","19"
"09/04/12 07:28:34","429691.1785","34.2","214.56","151","60.0","20"
"09/04/12 07:33:34","429691.1806","33.2","213.61","88","60.03","20"
"09/04/12 07:38:35","429691.183","37.5","214.08","288","60.03","20"
"09/04/12 07:43:35","429691.1857","41.4","213.79","287","60.03","20"
"09/04/12 07:48:34","429691.1886","46.0","213.89","352","60.03","21"
"09/04/12 07:53:34","429691.1919","51.1","212.67","356","60.0","22"
"09/04/12 07:58:35","429691.1955","46.8","213.69","341","60.0","23"
"09/04/12 08:03:35","429691.1995","58.3","214.02","370","60.07","23"
"09/04/12 08:08:34","429691.2036","47.5","213.17","193","60.03","24"
"09/04/12 08:13:33","429691.2076","42.4","214.35","325","60.03","24"
"09/04/12 08:18:33","429691.2117","41.4","213.94","211","60.03","25"
"09/04/12 08:23:33","429691.2169","68.7","214.3","351","60.03","25"
"09/04/12 08:28:34","429691.2225","74.7","214.29","374","60.0","25"
"09/04/12 08:33:35","429691.2285","79.2","214.99","393","60.0","26"
"09/04/12 08:38:34","429691.2348","83.2","215.52","410","60.03","26"
"09/04/12 08:43:33","429691.2414","87.3","214.8","429","60.0","26"
"09/04/12 08:48:34","429691.2484","91.2","215.37","439","60.0","27"
"09/04/12 08:53:35","429691.2556","94.2","214.93","458","60.07","27"
"09/04/12 08:58:33","429691.263","97.0","214.54","469","60.0","28"
"09/04/12 09:03:34","429691.2706","99.3","215.41","477","60.03","28"
"09/04/12 09:08:34","429691.2785","102.5","215.51","492","60.03","29"
"09/04/12 09:13:34","429691.2866","105.8","215.87","505","60.03","29"
"09/04/12 09:18:35","429691.295","108.8","215.06","517","60.03","30"
"09/04/12 09:23:34","429691.3035","110.8","214.84","530","60.0","31"
"09/04/12 09:28:35","429691.3123","113.2","214.2","544","60.03","31"
"09/04/12 09:33:33","429691.3211","115.5","215.17","551","60.0","32"
"09/04/12 09:38:33","429691.3301","118.1","215.55","557","60.03","33"
"09/04/12 09:43:34","429691.3395","120.5","214.61","574","60.0","33"
"09/04/12 09:48:35","429691.3489","122.5","215.0","579","60.03","34"
"09/04/12 09:53:33","429691.3585","124.1","215.16","591","60.03","35"
"09/04/12 09:58:34","429691.3683","126.3","213.45","601","60.0","36"
"09/04/12 10:03:34","429691.3783","130.0","214.29","610","60.03","36"
"09/04/12 10:08:34","429691.3885","133.6","214.48","629","60.03","36"
"09/04/12 10:13:34","429691.399","135.9","215.56","639","60.0","36"
"09/04/12 10:18:34","429691.4097","139.1","215.73","652","60.03","35"
"09/04/12 10:23:35","429691.4207","140.9","215.56","662","60.0","35"
"09/04/12 10:28:34","429691.4317","143.2","215.21","670","60.03","35"
"09/04/12 10:33:34","429691.4431","145.3","215.5","679","60.0","34"
"09/04/12 10:38:35","429691.4545","147.0","215.2","686","60.03","34"
"09/04/12 10:43:34","429691.4659","148.0","215.07","687","60.03","35"
"09/04/12 10:48:33","429691.4775","149.4","215.89","691","60.03","35"
"09/04/12 10:53:33","429691.4892","151.1","216.54","701","60.0","36"
"09/04/12 10:58:34","429691.5011","151.9","215.83","703","60.03","36"
"09/04/12 11:03:33","429691.5129","152.7","217.1","706","60.03","36"
"09/04/12 11:08:34","429691.5249","155.0","217.34","715","60.0","37"
"09/04/12 11:13:34","429691.5371","156.3","216.64","725","60.0","37"
"09/04/12 11:18:34","429691.5493","157.6","217.52","724","60.0","37"
"09/04/12 11:23:34","429691.5616","157.9","216.16","724","60.03","38"
"09/04/12 11:28:34","429691.5739","159.5","215.01","740","60.03","38"
"09/04/12 11:33:35","429691.5863","159.6","216.17","736","60.0","38"
"09/04/12 11:38:34","429691.5988","160.4","215.82","743","60.0","39"
"09/04/12 11:43:34","429691.6113","162.0","216.5","749","60.03","39"
"09/04/12 11:48:34","429691.624","162.6","216.11","752","60.03","39"
"09/04/12 11:53:34","429691.6368","164.8","215.87","760","60.03","38"
"09/04/12 11:58:33","429691.6495","163.8","216.7","753","60.03","39"
"09/04/12 12:03:34","429691.6623","164.9","215.87","758","60.03","38"
"09/04/12 12:08:34","429691.6751","166.3","215.77","763","60.03","38"
"09/04/12 12:13:33","429691.688","166.7","216.37","766","60.03","38"
"09/04/12 12:18:35","429691.7011","167.9","216.25","770","60.0","38"
"09/04/12 12:23:35","429691.7142","166.3","216.15","771","60.03","38"
"09/04/12 12:28:35","429691.7271","167.9","216.47","768","60.0","38"
"09/04/12 12:33:33","429691.7402","168.5","216.61","772","60.03","38"
"09/04/12 12:38:34","429691.7534","169.0","216.81","774","60.03","38"
"09/04/12 12:43:35","429691.7667","167.6","214.97","776","60.0","39"
"09/04/12 12:48:35","429691.7796","184.1","215.65","847","60.03","39"
"09/04/12 12:53:33","429691.7902","121.4","214.57","578","60.03","38"
"09/04/12 12:58:34","429691.8001","107.5","214.13","518","60.07","38"
"09/04/12 13:03:35","429691.812","172.0","216.21","791","60.03","38"
"09/04/12 13:08:35","429691.8236","141.9","215.93","659","60.03","37"
"09/04/12 13:13:34","429691.8374","178.2","215.91","818","59.96","38"
"09/04/12 13:18:34","429691.8507","168.9","216.4","773","60.0","38"
"09/04/12 13:23:34","429691.8639","168.1","216.06","775","60.03","38"
"09/04/12 13:28:33","429691.8768","164.7","216.06","760","60.03","38"
"09/04/12 13:33:34","429691.8896","163.3","216.12","747","60.0","38"
"09/04/12 13:38:34","429691.9022","160.7","215.76","744","60.03","38"
"09/04/12 13:43:34","429691.9147","159.5","215.61","738","60.0","38"
"09/04/12 13:48:35","429691.9271","157.9","215.61","731","60.03","38"
"09/04/12 13:53:35","429691.9393","156.6","216.13","724","60.03","38"
"09/04/12 13:58:34","429691.9516","157.6","216.93","725","60.0","38"
"09/04/12 14:03:34","429691.9638","155.3","216.25","718","60.03","38"
"09/04/12 14:08:34","429691.9758","154.4","216.23","715","60.03","37"
"09/04/12 14:13:35","429691.9878","152.5","216.2","709","60.0","37"
"09/04/12 14:18:35","429691.9997","151.8","216.11","704","60.0","37"
"09/04/12 14:23:35","429692.0115","149.6","215.87","695","60.0","37"
"09/04/12 14:28:35","429692.0231","148.6","215.43","693","60.03","36"
"09/04/12 14:33:35","429692.0346","147.1","215.3","686","60.03","36"
"09/04/12 14:38:33","429692.0459","145.6","215.41","678","60.0","36"
"09/04/12 14:43:35","429692.0572","143.3","215.27","672","60.03","35"
"09/04/12 14:48:33","429692.0682","141.5","215.74","662","60.03","35"
"09/04/12 14:53:34","429692.0792","139.3","216.29","647","60.0","35"
"09/04/12 14:58:35","429692.0899","137.4","216.15","645","60.03","35"
"09/04/12 15:03:34","429692.1006","135.0","215.56","635","60.03","34"
"09/04/12 15:08:35","429692.111","132.4","214.7","621","60.0","34"
"09/04/12 15:13:35","429692.1212","130.3","214.8","617","60.03","34"
"09/04/12 15:18:33","429692.1313","127.8","214.76","601","60.0","34"
"09/04/12 15:23:33","429692.1412","125.2","214.89","585","60.03","34"
"09/04/12 15:28:34","429692.1508","122.4","215.05","578","60.03","34"
"09/04/12 15:33:35","429692.1603","119.9","214.67","567","60.0","34"
"09/04/12 15:38:35","429692.1694","116.8","214.11","554","60.03","33"
"09/04/12 15:43:34","429692.1784","114.2","215.03","542","60.0","33"
"09/04/12 15:48:34","429692.1872","111.4","214.82","529","60.0","32"
"09/04/12 15:53:34","429692.1957","108.5","214.76","517","60.0","32"
"09/04/12 15:58:34","429692.2027","58.8","215.02","403","60.03","32"
"09/04/12 16:03:35","429692.211","104.8","215.45","503","60.0","32"
"09/04/12 16:08:33","429692.2188","99.7","215.51","478","60.03","32"
"09/04/12 16:13:35","429692.2246","99.0","215.24","476","60.0","31"
"09/04/12 16:18:35","429692.2319","92.4","214.75","452","60.0","31"
"09/04/12 16:23:33","429692.2389","88.3","214.27","429","60.03","31"
"09/04/12 16:28:33","429692.2455","83.5","214.31","413","60.03","30"
"09/04/12 16:33:35","429692.2519","80.3","214.55","396","60.03","30"
"09/04/12 16:38:33","429692.2579","76.2","214.51","377","60.0","30"
"09/04/12 16:43:35","429692.2638","71.9","214.05","361","60.0","30"
"09/04/12 16:48:35","429692.2692","68.1","213.65","345","60.03","29"